OPS 4682 DEB, 38380

Orbit data source: Space-Track

OPS 4682 DEB, 38380 is space debris in LEO originally from a launch on Sat, 03 Apr 1965 UTC launched from the Air Force Western Test Range (AFWTR). Debris objects in space refer to the collection of defunct objects orbiting the Earth. Examples of debris include non-operational satellites, rocket bodies, and fragments generated from explosions, collisions, or faulty payload assembly.

Loading next visibility...
Identifier
38380, 1965-027CH
Orbit
LEO
Country
Flag of USUS
Related business
Manufacturer
Unknown
Mission
Spacecraft
Bus & Motor
Unknown
Mass
Unknown
Launch date (UTC)
1965-04-03 (61 years ago)
Launch vehicle
Unknown
Launch site
Air Force Western Test Range (AFWTR)
Object type
Payload
Rocket body
Debris
Shape & HBR
Unknown shape, 0.1 m
Radar Cross Section
Small (<0.1 m²)

Expand to show TLE details & history
Last TLE update: 1 week ago

TLE from 1 week ago
0 OPS 4682 DEB
1 38380U 65027CH  26150.92570933  .00000769  00000-0  25345-2 0  9997
2 38380  90.2555 320.8479 0022224  13.2499 346.9202 12.99823517575373
Epoch: 2026-05-30T22:13Z
TLE epoch observation values (Epoch: 2026-05-30T22:13:01.286Z)
Latitude
-0.00002°
Longitude
99.1578°
Altitude
1,249.12 km
Speed
7.238 km/s
True Right ascension
21h 23m 23s
True Declination
0° 00' 00"
Sunlit
Object was in daylight at epoch
Visualization orbit readout
Latitude
Unknown
Longitude
Unknown
Altitude
Unknown
Speed
Unknown
Apparent Right ascension
Unknown
Apparent Declination
Unknown
Sunlit
N/A
Visualization observer readout
Local Sidereal Time
13:00:18
Azimuth
Unknown
Elevation
Unknown
Doppler factor
Unknown
Orbital elements
Apogee altitude
1,276.88 km
Perigee altitude
1,242.931 km
Semi-major axis
7,638.042 km
Eccentricity
0.00222
Inclination
90.2555°
RAAN
320.8479°
Arg. of periapsis
13.2499°
True anomaly
346.86241°
Mean anomaly
346.9202°
Eccentric anomaly
346.89132°
Mean motion
3.2514 °/min
Orbital period
110.72 mins
BSTAR
0.0025345
Loading maneuver chart data...
Computing Atmospheric mass density...
Loading historical data...
Loading historical data...
Loading historical data...
Loading historical data...
Loading historical data...
Loading historical data...
Loading historical data...

Documentation

Showing up to 5 results
|